DateTimeUTC,F1_A11,F1_S11,BsB_S11,BsG_S11,BsR_S11,BbsB_S11,BbsG_S11,BbsR_S11,BaB_A11,BaG_A11,BaR_A11,Tu_S11,T_S11,Uu_S11,U_S11,P_S11,T1_A11
2021-01-13T19:00:00Z,00000200,21000000,,,,,,,0000.12,0000.53,-000.21,17.3,24.2,00.9,00.6,0646.8,31.0
2021-01-13T19:01:00Z,00000200,21000000,,,,,,,-000.06,-000.12,0000.03,17.3,24.2,00.9,00.6,0646.8,31.0
2021-01-13T19:02:00Z,00000200,21000000,,,,,,,0000.04,-000.02,0000.23,17.2,24.2,00.9,00.6,0646.8,31.0
2021-01-13T19:03:00Z,00000200,61000000,,,,,,,0000.22,-000.03,-000.02,17.2,24.2,00.9,00.6,0646.8,30.9
2021-01-13T19:04:00Z,00000200,41000000,0000.80,-000.03,0000.46,0000.47,0000.34,0000.24,-000.23,-000.24,-000.43,17.4,24.0,01.0,00.7,0647.7,31.0
2021-01-13T19:05:00Z,00000200,01000000,0000.34,0000.17,0000.07,0000.53,-000.03,0000.08,-000.01,0000.45,0000.59,17.4,24.0,01.0,00.7,0647.8,30.9
2021-01-13T19:06:00Z,00000200,01000000,-000.03,0000.19,-000.03,0000.12,0000.05,-000.22,0000.13,-000.27,-000.40,17.4,24.0,01.0,00.7,0647.8,31.0
2021-01-13T19:07:00Z,00000200,01000000,0000.29,-000.02,0000.14,0000.50,0000.18,0000.08,-000.07,-000.11,0000.11,17.4,24.0,01.1,00.7,0647.8,31.0
2021-01-13T19:08:00Z,00000200,01000000,0000.02,-000.10,-000.41,-000.30,0000.12,0000.18,-000.04,0000.13,0000.22,17.4,23.9,01.1,00.7,0647.8,31.0
2021-01-13T19:09:00Z,00000200,01000000,-000.02,0000.27,-000.09,-000.13,0000.12,0000.02,0000.33,-000.19,-000.20,17.4,23.9,01.1,00.7,0647.8,30.9
2021-01-13T19:10:00Z,00000200,01000000,0000.24,0000.08,-000.31,0000.33,0000.11,-000.11,-000.16,0000.25,0000.00,17.4,23.9,01.0,00.7,0647.8,30.9
2021-01-13T19:11:00Z,00000200,01000000,0000.08,0000.13,0000.07,0000.50,0000.17,0000.05,0000.01,0000.15,-000.12,17.4,23.9,01.1,00.7,0647.8,31.0
2021-01-13T19:12:00Z,00000200,01000000,-000.29,0000.05,0000.12,0000.34,0000.27,0000.04,-000.36,-000.48,-000.18,17.4,23.9,01.0,00.6,0647.8,30.9
2021-01-13T19:13:00Z,00000200,01000000,-000.01,0000.38,0000.09,-000.23,0000.43,-000.06,0000.12,-000.04,0000.30,17.4,23.9,01.0,00.7,0647.8,30.9
2021-01-13T19:14:00Z,00000200,01000000,0000.35,0000.41,0000.15,-000.47,-000.04,0000.03,0000.13,0000.02,0000.00,17.4,23.9,00.9,00.6,0647.9,30.9
2021-01-13T19:15:00Z,00000200,01000000,0000.97,0000.23,-000.13,0000.21,-000.16,0000.39,-000.04,-000.05,-000.04,17.4,23.9,00.9,00.6,0647.8,30.9
2021-01-13T19:16:00Z,00000200,01000000,-000.02,0000.14,0000.18,-000.08,-000.12,0000.03,-000.02,-000.07,0000.20,17.4,23.9,00.9,00.6,0647.9,30.9
2021-01-13T19:17:00Z,00000200,01000000,0000.43,0000.01,-000.01,0000.49,0000.17,0000.02,-000.22,0000.03,-000.25,17.3,23.8,00.7,00.5,0647.9,30.9
2021-01-13T19:18:00Z,00000200,01000000,-000.29,0000.31,0000.06,-000.16,0000.17,-000.04,-000.17,0000.13,-000.09,17.3,23.8,00.9,00.6,0647.9,30.9
2021-01-13T19:19:00Z,00000200,01000000,0000.43,-000.21,-000.05,0000.40,0000.15,0000.01,0000.26,0000.24,0000.22,17.4,23.8,00.8,00.5,0647.9,30.9
2021-01-13T19:20:00Z,00000200,01000000,-000.23,0000.27,-000.12,0000.41,-000.10,0000.05,0000.06,0000.12,0000.39,17.4,23.8,00.8,00.5,0647.9,30.9
2021-01-13T19:21:00Z,00000200,01000000,0000.09,-000.03,-000.12,-000.32,-000.08,0000.07,0000.06,0000.10,-000.17,17.5,23.9,00.7,00.5,0648.0,31.0
2021-01-13T19:22:00Z,00000200,01000000,0000.22,0000.34,-000.17,-000.12,0000.02,0000.07,0000.02,-000.39,-000.32,17.6,23.9,00.8,00.5,0647.9,31.0
2021-01-13T19:23:00Z,00000200,01000000,0000.53,0000.26,-000.33,0000.48,0000.30,-000.08,-000.06,-000.05,0000.07,17.6,24.0,00.7,00.5,0648.0,31.0
2021-01-13T19:24:00Z,00000200,01000000,0000.72,0000.20,0000.24,0000.02,0000.36,0000.12,-000.18,-000.02,0000.21,17.7,24.0,00.7,00.5,0648.0,31.0
2021-01-13T19:25:00Z,00000200,01000000,0000.50,0000.03,0000.24,-000.02,-000.01,-000.02,0000.13,0000.10,-000.44,17.6,24.0,00.6,00.4,0648.0,31.0
2021-01-13T19:26:00Z,00000200,01000000,0000.07,0000.36,0000.16,0000.45,0000.06,-000.21,-000.08,-000.11,-000.05,17.6,24.0,00.5,00.4,0648.0,31.0
2021-01-13T19:27:00Z,00000200,01000000,-000.34,0000.19,-000.12,-000.02,-000.17,0000.02,-000.12,-000.05,0000.37,17.6,24.0,00.5,00.4,0648.0,31.0
2021-01-13T19:28:00Z,00000200,01000000,0000.62,0000.32,-000.08,0000.06,0000.04,-000.01,0000.25,0000.10,0000.12,17.6,24.0,00.5,00.3,0648.0,31.0
2021-01-13T19:29:00Z,00000200,01000000,0000.98,-000.25,0000.04,0000.35,0000.21,0000.02,-000.25,0000.03,-000.66,17.6,24.0,00.5,00.3,0648.0,31.0
2021-01-13T19:30:00Z,00000200,01000000,0000.36,0000.20,0000.02,0000.75,0000.13,0000.20,0000.09,0000.02,0000.36,17.6,24.0,00.5,00.4,0648.0,30.9
2021-01-13T19:31:00Z,00000200,01000000,0000.85,-000.02,0000.37,0000.12,-000.01,0000.17,0000.08,-000.08,0000.15,17.6,24.0,00.5,00.3,0648.0,30.9
2021-01-13T19:32:00Z,00000200,01000000,-000.19,0000.42,0000.02,0000.15,-000.13,0000.27,-000.15,-000.15,0000.02,17.5,24.0,00.5,00.3,0648.0,31.0
2021-01-13T19:33:00Z,00000200,01000000,0000.30,0000.31,0000.08,-000.10,-000.03,0000.06,0000.08,0000.38,-000.13,17.5,24.0,00.5,00.3,0648.0,30.9
2021-01-13T19:34:00Z,00000200,01000000,-000.28,0000.10,-000.04,-000.00,0000.10,-000.05,-000.03,-000.08,-000.01,17.5,24.0,00.4,00.3,0648.0,31.0
2021-01-13T19:35:00Z,00000200,01000000,0000.24,0000.09,-000.13,0000.33,0000.12,0000.03,0000.13,-000.19,-000.10,17.6,24.0,00.4,00.3,0648.0,31.0
2021-01-13T19:36:00Z,00000200,01000000,-000.20,0000.25,-000.06,0000.14,0000.15,-000.16,-000.12,0000.20,0000.45,17.6,24.0,00.5,00.3,0648.0,31.0
2021-01-13T19:37:00Z,00000200,01000000,0000.22,0000.08,-000.24,-000.06,-000.09,-000.15,-000.09,0000.13,-000.46,17.6,24.0,00.3,00.2,0648.0,31.0
2021-01-13T19:38:00Z,00000200,01000000,0000.04,0000.20,0000.33,-000.31,0000.06,0000.38,0000.08,-000.53,-000.15,17.6,24.0,00.4,00.3,0648.0,31.0
2021-01-13T19:39:00Z,00000200,01000000,-000.19,0000.40,-000.22,-000.40,0000.26,-000.16,0000.03,0000.32,0000.03,17.6,24.0,00.4,00.3,0648.0,31.0
2021-01-13T19:40:00Z,00000200,01000000,0000.21,0000.24,-000.06,0000.01,0000.16,0000.02,-000.08,0000.03,-000.08,17.6,24.0,00.4,00.3,0648.0,31.0
2021-01-13T19:41:00Z,00000200,01000000,-000.79,-000.03,-000.10,0000.49,-000.15,0000.16,0000.07,-000.07,0000.31,17.6,24.0,00.4,00.3,0648.0,31.0
2021-01-13T19:42:00Z,00000200,01000000,0000.06,0000.25,0000.09,0000.74,-000.15,-000.05,0000.41,-000.16,-000.14,17.6,24.0,00.4,00.3,0648.1,31.0
2021-01-13T19:43:00Z,00000200,01000000,0001.20,-000.23,-000.02,0000.41,-000.05,0000.28,-000.62,0000.16,-000.06,17.6,24.0,00.4,00.3,0648.1,31.0
2021-01-13T19:44:00Z,00000200,01000000,0000.21,0000.23,0000.08,0000.36,0000.10,-000.07,0000.41,-000.00,-000.02,17.5,23.9,00.4,00.2,0648.1,31.0
2021-01-13T19:45:00Z,00000200,01000000,0000.31,0000.35,-000.12,0000.33,0000.29,0000.13,-000.35,-000.31,0000.21,17.5,23.9,00.3,00.2,0648.1,31.0
2021-01-13T19:46:00Z,00000200,01000000,0000.13,0000.29,-000.15,-000.02,0000.14,0000.16,0000.23,0000.28,0000.16,17.5,24.0,00.3,00.2,0648.1,31.0
2021-01-13T19:47:00Z,00000200,01000000,0000.17,0000.07,-000.11,0000.75,-000.11,-000.13,0000.02,-000.15,-000.11,17.5,23.9,00.3,00.2,0648.1,31.0
2021-01-13T19:48:00Z,00000200,01000000,-000.40,0000.32,-000.16,0000.15,-000.05,-000.01,0000.09,0000.23,-000.08,17.5,23.9,00.4,00.3,0648.1,30.9
2021-01-13T19:49:00Z,00000200,01000000,0000.14,0000.15,0000.25,0000.25,0000.13,0000.13,0000.01,-000.10,0000.08,17.5,23.9,00.3,00.2,0648.1,31.0
2021-01-13T19:50:00Z,00000200,01000000,-000.07,0000.12,0000.12,0000.03,-000.19,-000.01,0000.18,0000.30,0000.06,17.5,23.9,00.3,00.2,0648.1,30.9
2021-01-13T19:51:00Z,00000200,01000000,-000.28,0000.18,0000.08,0000.54,-000.00,0000.23,0000.07,-000.57,-000.01,17.5,23.9,00.3,00.2,0648.1,31.0
2021-01-13T19:52:00Z,00000200,01000000,-000.13,0000.18,-000.10,-000.01,-000.11,-000.05,-000.59,0000.15,-000.25,17.5,23.9,00.3,00.2,0648.1,31.0
2021-01-13T19:53:00Z,00000200,01000000,0000.43,0000.16,-000.14,0000.32,0000.07,-000.01,0000.29,0000.16,0000.15,17.4,23.9,00.3,00.2,0648.1,30.9
2021-01-13T19:54:00Z,00000200,01000000,-000.24,0000.23,-000.12,-000.42,0000.03,0000.27,0000.20,-000.07,0000.24,17.4,23.9,00.2,00.2,0648.1,30.9
2021-01-13T19:55:00Z,00000200,01000000,-000.11,-000.01,-000.14,-000.27,0000.19,-000.44,-000.27,-000.20,-000.27,17.4,23.9,00.2,00.2,0648.1,30.9
2021-01-13T19:56:00Z,00000200,01000000,0000.78,0000.03,-000.11,0000.48,0000.02,0000.16,0000.00,0000.31,-000.09,17.4,23.9,00.3,00.2,0648.1,30.9
2021-01-13T19:57:00Z,00000200,41000000,,,,,,,0000.46,0000.14,0000.37,17.4,23.9,00.6,00.4,0648.1,30.9
2021-01-13T19:58:00Z,00000200,61000000,,,,,,,-000.23,-000.12,-000.54,17.1,24.0,00.2,00.1,0647.2,30.9
2021-01-13T19:59:00Z,00000200,21000000,,,,,,,-000.09,-000.28,-000.19,17.1,24.1,,00.0,0647.1,30.9
